Location: Austin
(30.3000°N, 97.7500°W)
Time: 03:08:53
(UTC-05:00)

Milstar 3 Cent rocket - Pass Details

Date: 18 March 2023
Orbit: 707 x 5145 km, 28.3° (Epoch: 01 April)

Event Time Altitude Azimuth Distance (km) Brightness Sun altitude
Rises 20:26:28 0° 272° (W) 3,474 7.7 -10.6°
Reaches altitude 10° 20:28:27 10° 270° (W) 2,739 6.4 -11.0°
Maximum altitude 20:34:54 75° 186° (S) 1,491 3.4 -12.4°
Enters shadow 20:45:23 17° 104° (ESE) 4,469 5.2 -14.7°
